Location: Saleratus Ranch
(37.7914°N, 109.6108°W)
Time: 01:26:10
(UTC-07:00)

Tiangong 1 - Visible Passes

Search period start: 19 November 2017 00:00
Search period end: 29 November 2017 00:00
Orbit: 285 x 309 km, 42.8° (Epoch: 18 November)

Date Brightness Start Highest point End Pass type
(mag) Time Alt. Az. Time Alt. Az. Time Alt. Az.
22 Nov 3.1 18:32:27 10° S 18:33:14 14° S 18:33:14 14° S visible
23 Nov 2.3 18:38:23 10° SW 18:39:55 26° SSW 18:39:55 26° SSW visible
24 Nov 2.2 18:44:47 10° WSW 18:46:24 33° WSW 18:46:24 33° WSW visible
25 Nov 2.8 18:51:22 10° W 18:52:42 26° W 18:52:42 26° W visible
26 Nov 1.2 17:23:05 10° SW 17:25:34 43° SSE 17:28:03 10° ENE visible
26 Nov 3.4 18:57:58 10° W 18:58:51 17° WNW 18:58:51 17° WNW visible
27 Nov 0.5 17:29:15 10° WSW 17:31:49 85° NNW 17:34:23 10° ENE visible
27 Nov 3.9 19:04:31 10° WNW 19:04:50 12° WNW 19:04:50 12° WNW visible
28 Nov 1.2 17:35:31 10° W 17:38:01 45° NNW 17:40:20 11° ENE visible
